Back to catalog

FENGYUN 1C DEB

AlivePO
NORAD 31372·DEBRIS·🇨🇳 China

Launched May 10, 1999 from Taiyuan Satellite Launch Center

Loading…

Next Passes (next 24 hours)

TLE

FreshSource: Space-Track

Epoch: Sep 14, 2026, 08:07 UTC

1 31372U 99025BSC 26257.33831838  .00001904  00000-0  77725-3 0  9995
2 31372  99.3790 273.3790 0032095  10.2170 349.9655 14.28386518997839

Track FENGYUN 1C DEB in real time with AllMySat

Download on the App Store